Location: Unspecified
(51.0950°N, 12.9690°E)
Time: 19:16:57
(UTC+00:00)

BUGSAT 1 - Pass Details

Date: 19 May 2025
Orbit: 512 x 554 km, 98.1° (Epoch: 16 June)

Event Time Altitude Azimuth Distance (km) Brightness Sun altitude
Exits shadow 21:16:59 - 214° (SW) 1,852 ? -15.1°
Reaches altitude 10° 21:17:19 10° 218° (SW) 1,749 ? -15.1°
Maximum altitude 21:20:09 20° 267° (W) 1,237 ? -15.3°
Drops below altitude 10° 21:22:59 10° 316° (NW) 1,750 ? -15.5°
Sets 21:25:31 0° 334° (NNW) 2,641 ? -15.7°
